Regional Weather Roundup
Issued by NWS

Home | Current Version | Previous Version | Graphics & Text | Print | Product List | Glossary On
Versions: 1 2 3 4 5 6 7 8 9 10 11 12 13 14 15 16 17 18 19 20 21 22 23 24 25 26 27 28 29 30 31 32 33 34 35 36 37 38 39 40 41 42 43 44 45 46 47 48 49 50
000
ASUS43 KBIS 170720
RWRND

NORTH DAKOTA REGIONAL WEATHER ROUNDUP
NATIONAL WEATHER SERVICE BISMARCK ND
200 AM CDT WED SEP 17 2014

NOTE: "FAIR" INDICATES FEW OR NO CLOUDS BELOW 12,000 FEET WITH NO
SIGNIFICANT WEATHER AND/OR OBSTRUCTIONS TO VISIBILITY.


NDZ001>003-009>011-017-170800-
NORTHWEST NORTH DAKOTA

CITY           SKY/WX    TMP DP  RH WIND       PRES   REMARKS
WILLISTON      CLEAR     43  37  79 CALM      29.93S HAZE
MINOT          CLEAR     50  43  77 SW9       29.91S
MINOT AFB      CLEAR     43  42  96 W8        29.91S
$$

NDZ018>021-031>035-040>046-170800-
SOUTHWEST NORTH DAKOTA

CITY           SKY/WX    TMP DP  RH WIND       PRES   REMARKS
BISMARCK       CLEAR     47  44  90 CALM      29.94S
DICKINSON      PTCLDY    50  41  71 CALM      29.93F
GARRISON         N/A     45  42  89 CALM      29.93S
HETTINGER ARPT PTCLDY    44  41  89 W5        29.95S
$$

NDZ004>008-012>016-024-026-027-054-170800-
NORTHEAST NORTH DAKOTA

CITY           SKY/WX    TMP DP  RH WIND       PRES   REMARKS
GRAND FORKS    CLEAR     48  42  80 S5        29.90S
GRND FRKS AFB  CLEAR     47  43  85 SW6       29.90F
DEVILS LAKE    CLEAR     46  37  71 S3        29.91R
$$

NDZ022-023-025-028>030-036>039-047>053-170800-
SOUTHEAST NORTH DAKOTA

CITY           SKY/WX    TMP DP  RH WIND       PRES   REMARKS
FARGO          CLEAR     56  47  71 S6        29.90F
JAMESTOWN      CLEAR     44  41  89 NW3       29.91S
$$



USA.gov is the U.S. government's official web portal to all federal, state and local government web resources and services.